Time,TemperatureF,DewpointF,PressureIn,WindDirection,WindDirectionDegrees,WindSpeedMPH,WindSpeedGustMPH,Humidity,HourlyPrecipIn,Conditions,Clouds,dailyrainin,SoftwareType,DateUTC
2013-09-29 00:13:00,52.0,48.0,29.84,SSW,207,0.0,6.0,87,0.00,,,0.11,,2013-09-29 05:13:00,
2013-09-29 00:22:00,52.0,48.0,29.85,West,267,0.0,4.0,87,0.00,,,0.11,,2013-09-29 05:22:00,
2013-09-29 00:52:00,51.0,48.0,29.85,West,263,1.0,4.0,88,0.00,,,0.11,,2013-09-29 05:52:00,
2013-09-29 01:12:00,50.0,47.0,29.85,WSW,256,0.0,7.0,88,0.00,,,0.11,,2013-09-29 06:12:00,
2013-09-29 01:22:00,50.0,47.0,29.86,SE,138,1.0,4.0,89,0.00,,,0.11,,2013-09-29 06:22:00,
2013-09-29 01:42:00,50.0,47.0,29.86,SSE,163,0.0,3.0,90,0.00,,,0.11,,2013-09-29 06:42:00,
2013-09-29 01:52:00,49.0,46.0,29.86,West,265,0.0,1.0,91,0.00,,,0.11,,2013-09-29 06:52:00,
2013-09-29 02:11:00,49.0,46.0,29.87,SSW,196,0.0,3.0,91,0.00,,,0.11,,2013-09-29 07:11:00,
2013-09-29 02:22:00,49.0,47.0,29.87,South,180,1.0,3.0,92,0.00,,,0.11,,2013-09-29 07:22:00,
2013-09-29 02:43:00,49.0,47.0,29.86,SE,144,0.0,2.0,93,0.00,,,0.11,,2013-09-29 07:43:00,
2013-09-29 02:52:00,48.0,46.0,29.87,SE,144,0.0,2.0,93,0.00,,,0.11,,2013-09-29 07:52:00,
2013-09-29 03:12:00,48.0,46.0,29.87,SE,144,0.0,1.0,93,0.00,,,0.11,,2013-09-29 08:12:00,
2013-09-29 03:22:00,48.0,46.0,29.87,SE,144,0.0,2.0,93,0.00,,,0.11,,2013-09-29 08:22:00,
2013-09-29 03:42:00,48.0,46.0,29.86,SE,144,0.0,1.0,94,0.00,,,0.11,,2013-09-29 08:42:00,
2013-09-29 03:52:00,47.0,45.0,29.86,SE,144,0.0,2.0,94,0.00,,,0.11,,2013-09-29 08:52:00,
2013-09-29 04:11:00,47.0,45.0,29.86,SE,144,0.0,1.0,94,0.00,,,0.11,,2013-09-29 09:11:00,
2013-09-29 04:22:00,46.0,44.0,29.86,SE,144,0.0,0.0,94,0.00,,,0.11,,2013-09-29 09:22:00,
2013-09-29 04:43:00,45.0,43.0,29.87,SE,144,0.0,1.0,94,0.00,,,0.11,,2013-09-29 09:43:00,
2013-09-29 04:53:00,45.0,44.0,29.87,SE,144,0.0,0.0,95,0.00,,,0.11,,2013-09-29 09:53:00,
2013-09-29 05:12:00,44.0,43.0,29.87,SE,144,0.0,0.0,95,0.00,,,0.11,,2013-09-29 10:12:00,
2013-09-29 05:23:00,45.0,44.0,29.87,SE,144,0.0,1.0,96,0.00,,,0.11,,2013-09-29 10:23:00,
2013-09-29 05:43:00,46.0,45.0,29.87,South,183,0.0,3.0,95,0.00,,,0.11,,2013-09-29 10:43:00,
2013-09-29 05:53:00,46.0,45.0,29.86,WSW,254,0.0,5.0,95,0.00,,,0.11,,2013-09-29 10:53:00,
2013-09-29 06:12:00,47.0,45.0,29.86,South,173,1.0,3.0,94,0.00,,,0.11,,2013-09-29 11:12:00,
2013-09-29 06:22:00,48.0,46.0,29.86,West,259,1.0,5.0,92,0.00,,,0.11,,2013-09-29 11:22:00,
2013-09-29 06:52:00,48.0,45.0,29.88,SSW,211,1.0,4.0,89,0.00,,,0.11,,2013-09-29 11:52:00,
2013-09-29 07:12:00,48.0,45.0,29.88,SW,221,1.0,6.0,89,0.00,,,0.11,,2013-09-29 12:12:00,
2013-09-29 07:21:00,48.0,45.0,29.89,SW,232,0.0,5.0,88,0.00,,,0.11,,2013-09-29 12:21:00,
2013-09-29 07:52:00,48.0,45.0,29.90,SSW,211,0.0,5.0,88,0.00,,,0.11,,2013-09-29 12:52:00,
2013-09-29 08:11:00,49.0,46.0,29.91,SSW,202,1.0,3.0,88,0.00,,,0.11,,2013-09-29 13:11:00,
2013-09-29 08:22:00,49.0,45.0,29.91,West,264,1.0,5.0,87,0.00,,,0.11,,2013-09-29 13:22:00,
2013-09-29 08:53:00,50.0,46.0,29.90,South,183,1.0,4.0,87,0.00,,,0.11,,2013-09-29 13:53:00,
2013-09-29 09:12:00,51.0,47.0,29.91,West,273,0.0,4.0,85,0.00,,,0.11,,2013-09-29 14:12:00,
2013-09-29 09:21:00,52.0,48.0,29.91,SW,231,2.0,5.0,85,0.00,,,0.11,,2013-09-29 14:21:00,
2013-09-29 09:43:00,53.0,48.0,29.91,SW,230,1.0,6.0,83,0.00,,,0.11,,2013-09-29 14:43:00,
2013-09-29 09:52:00,54.0,48.0,29.91,West,266,1.0,5.0,81,0.00,,,0.11,,2013-09-29 14:52:00,
2013-09-29 10:12:00,55.0,49.0,29.91,West,268,0.0,4.0,80,0.00,,,0.11,,2013-09-29 15:12:00,
2013-09-29 10:22:00,56.0,49.0,29.92,WSW,252,1.0,6.0,77,0.00,,,0.11,,2013-09-29 15:22:00,
2013-09-29 10:45:00,58.0,50.0,29.92,West,267,1.0,5.0,74,0.00,,,0.11,,2013-09-29 15:45:00,
2013-09-29 10:54:00,59.0,50.0,29.92,SSE,160,1.0,5.0,72,0.00,,,0.11,,2013-09-29 15:54:00,
2013-09-29 11:14:00,60.0,51.0,29.92,SW,225,1.0,5.0,71,0.00,,,0.11,,2013-09-29 16:14:00,
2013-09-29 11:24:00,62.0,52.0,29.92,WNW,300,1.0,5.0,70,0.00,,,0.11,,2013-09-29 16:24:00,
2013-09-29 11:44:00,63.0,52.0,29.91,WSW,246,1.0,4.0,68,0.00,,,0.11,,2013-09-29 16:44:00,
2013-09-29 11:54:00,64.0,52.0,29.92,West,263,1.0,7.0,66,0.00,,,0.11,,2013-09-29 16:54:00,
2013-09-29 12:12:00,65.0,52.0,29.91,West,264,1.0,4.0,62,0.00,,,0.11,,2013-09-29 17:12:00,
2013-09-29 12:24:00,66.0,52.0,29.91,South,178,2.0,5.0,61,0.00,,,0.11,,2013-09-29 17:24:00,
2013-09-29 12:43:00,67.0,50.0,29.90,SSW,211,2.0,6.0,55,0.00,,,0.11,,2013-09-29 17:43:00,
2013-09-29 12:52:00,68.0,52.0,29.90,WNW,284,0.0,5.0,57,0.00,,,0.11,,2013-09-29 17:52:00,
2013-09-29 13:13:00,69.0,53.0,29.89,WSW,246,0.0,7.0,56,0.00,,,0.11,,2013-09-29 18:13:00,
2013-09-29 13:22:00,69.0,51.0,29.89,WSW,249,2.0,7.0,52,0.00,,,0.11,,2013-09-29 18:22:00,
2013-09-29 13:42:00,70.0,50.0,29.89,SSW,207,2.0,8.0,49,0.00,,,0.11,,2013-09-29 18:42:00,
2013-09-29 13:52:00,70.0,50.0,29.88,WSW,251,1.0,6.0,49,0.00,,,0.11,,2013-09-29 18:52:00,
2013-09-29 14:11:00,70.0,49.0,29.88,SW,234,1.0,6.0,48,0.00,,,0.11,,2013-09-29 19:11:00,
2013-09-29 14:22:00,71.0,51.0,29.87,West,259,1.0,7.0,50,0.00,,,0.11,,2013-09-29 19:22:00,
2013-09-29 14:42:00,71.0,49.0,29.87,West,272,2.0,7.0,45,0.00,,,0.11,,2013-09-29 19:42:00,
2013-09-29 14:52:00,71.0,50.0,29.87,WNW,296,1.0,8.0,47,0.00,,,0.11,,2013-09-29 19:52:00,
2013-09-29 15:12:00,72.0,49.0,29.86,West,269,1.0,6.0,44,0.00,,,0.11,,2013-09-29 20:12:00,
2013-09-29 15:22:00,72.0,48.0,29.86,SSE,155,2.0,7.0,42,0.00,,,0.11,,2013-09-29 20:22:00,
2013-09-29 15:43:00,72.0,49.0,29.85,SSW,192,1.0,7.0,44,0.00,,,0.10,,2013-09-29 20:43:00,
2013-09-29 15:52:00,72.0,48.0,29.85,WSW,252,2.0,10.0,43,0.00,,,0.10,,2013-09-29 20:52:00,
2013-09-29 16:11:00,72.0,47.0,29.84,WSW,256,2.0,7.0,41,0.00,,,0.10,,2013-09-29 21:11:00,
2013-09-29 16:21:00,72.0,47.0,29.84,West,278,2.0,7.0,41,0.00,,,0.10,,2013-09-29 21:21:00,
2013-09-29 16:44:00,72.0,46.0,29.84,SSW,192,1.0,6.0,40,0.00,,,0.05,,2013-09-29 21:44:00,
2013-09-29 16:54:00,72.0,46.0,29.84,South,184,1.0,6.0,39,0.00,,,0.05,,2013-09-29 21:54:00,
2013-09-29 17:14:00,71.0,45.0,29.83,SW,220,1.0,5.0,40,0.00,,,0.05,,2013-09-29 22:14:00,
2013-09-29 17:24:00,71.0,47.0,29.83,SSW,195,1.0,4.0,42,0.00,,,0.05,,2013-09-29 22:24:00,
2013-09-29 17:53:00,70.0,48.0,29.83,SSW,211,0.0,4.0,45,0.00,,,0.01,,2013-09-29 22:53:00,
2013-09-29 18:12:00,70.0,48.0,29.83,South,182,1.0,4.0,45,0.00,,,0.01,,2013-09-29 23:12:00,
2013-09-29 18:23:00,69.0,48.0,29.82,South,186,0.0,2.0,47,0.00,,,0.01,,2013-09-29 23:23:00,
2013-09-29 18:43:00,68.0,48.0,29.82,South,186,0.0,2.0,49,0.00,,,0.00,,2013-09-29 23:43:00,
2013-09-29 18:53:00,66.0,48.0,29.82,South,186,0.0,1.0,53,0.00,,,0.00,,2013-09-29 23:53:00,
2013-09-29 19:11:00,64.0,50.0,29.82,South,186,0.0,0.0,60,0.00,,,0.00,,2013-09-30 00:11:00,
2013-09-29 19:22:00,62.0,50.0,29.82,South,186,0.0,0.0,65,0.00,,,0.00,,2013-09-30 00:22:00,
2013-09-29 19:42:00,60.0,50.0,29.82,South,186,0.0,0.0,69,0.00,,,0.00,,2013-09-30 00:42:00,
2013-09-29 19:52:00,60.0,49.0,29.82,South,186,0.0,2.0,68,0.00,,,0.00,,2013-09-30 00:52:00,
2013-09-29 20:11:00,60.0,49.0,29.82,South,186,0.0,2.0,67,0.00,,,0.00,,2013-09-30 01:11:00,
2013-09-29 20:22:00,61.0,50.0,29.83,South,177,0.0,3.0,67,0.00,,,0.00,,2013-09-30 01:22:00,
2013-09-29 20:42:00,60.0,50.0,29.83,South,190,1.0,3.0,69,0.00,,,0.00,,2013-09-30 01:42:00,
2013-09-29 20:52:00,59.0,49.0,29.83,SSW,200,0.0,3.0,70,0.00,,,0.00,,2013-09-30 01:52:00,
2013-09-29 21:12:00,59.0,49.0,29.83,South,171,1.0,5.0,70,0.00,,,0.00,,2013-09-30 02:12:00,
2013-09-29 21:22:00,59.0,49.0,29.83,South,184,1.0,6.0,70,0.00,,,0.00,,2013-09-30 02:22:00,
2013-09-29 21:42:00,59.0,49.0,29.83,SSW,196,0.0,4.0,70,0.00,,,0.00,,2013-09-30 02:42:00,
2013-09-29 21:52:00,58.0,49.0,29.83,SSW,201,0.0,3.0,72,0.00,,,0.00,,2013-09-30 02:52:00,
2013-09-29 22:12:00,58.0,49.0,29.83,SW,221,0.0,3.0,73,0.00,,,0.00,,2013-09-30 03:12:00,
2013-09-29 22:22:00,57.0,49.0,29.82,SSW,198,0.0,3.0,74,0.00,,,0.00,,2013-09-30 03:22:00,
2013-09-29 22:44:00,57.0,50.0,29.82,SSW,198,0.0,1.0,76,0.00,,,0.00,,2013-09-30 03:44:00,
2013-09-29 22:55:00,55.0,49.0,29.82,SSW,198,0.0,0.0,80,0.00,,,0.00,,2013-09-30 03:55:00,
2013-09-29 23:14:00,54.0,49.0,29.82,SSW,198,0.0,0.0,83,0.00,,,0.00,,2013-09-30 04:14:00,
2013-09-29 23:25:00,53.0,48.0,29.81,SSW,198,0.0,0.0,84,0.00,,,0.00,,2013-09-30 04:25:00,
2013-09-29 23:44:00,54.0,49.0,29.81,SSW,198,0.0,1.0,84,0.00,,,0.00,,2013-09-30 04:44:00,
2013-09-29 23:53:00,55.0,49.0,29.80,SSW,198,0.0,2.0,81,0.00,,,0.00,,2013-09-30 04:53:00,